GFSMA_prec_pwat_135.txt.gz
Precipitable_Water
1.45 1.58 1.63 1.75 1.75 1.82 1.72 1.65 1.66 1.65 1.56 1.52 1.54 1.50 1.48 1.53 1.41 1.33 1.33 1.37 1.30 1.27 1.23 1.23 1.25 1.27 1.33 1.38 1.39 1.42 1.51 1.49 1.52 1.54 1.57 1.57 1.62 1.66 1.62 1.60 1.60 1.58 1.38
1.25 1.28 1.42 1.57 1.69 1.80 1.82 1.80 1.77 1.69 1.61 1.62 1.58 1.55 1.48 1.54 1.46 1.53 1.46 1.39 1.33 1.29 1.23 1.21 1.21 1.23 1.27 1.33 1.33 1.36 1.45 1.48 1.51 1.51 1.53 1.53 1.56 1.64 1.65 1.65 1.65 1.64 1.57
1.12 1.22 1.37 1.46 1.59 1.75 1.80 1.84 1.86 1.91 1.77 1.73 1.61 1.62 1.57 1.52 1.45 1.42 1.49 1.51 1.55 1.40 1.32 1.22 1.18 1.17 1.18 1.24 1.29 1.35 1.40 1.46 1.49 1.49 1.47 1.51 1.48 1.54 1.63 1.63 1.66 1.67 1.65
1.07 1.12 1.22 1.32 1.45 1.56 1.69 1.72 1.69 1.35 1.71 1.62 1.65 1.59 1.59 1.53 1.48 1.47 1.45 1.38 1.54 1.55 1.46 1.34 1.25 1.19 1.16 1.14 1.20 1.32 1.37 1.40 1.46 1.48 1.43 1.43 1.47 1.48 1.54 1.62 1.62 1.62 1.62
0.98 1.04 1.07 1.14 1.20 1.24 1.34 1.40 1.34 1.35 1.31 1.34 1.39 1.53 1.53 1.41 1.44 1.49 1.49 1.39 1.50 1.49 1.57 1.50 1.39 1.31 1.23 1.19 1.18 1.20 1.28 1.32 1.37 1.44 1.45 1.42 1.42 1.43 1.48 1.52 1.54 1.58 1.61
0.88 0.92 0.96 1.00 1.03 1.05 1.04 1.08 1.12 1.18 1.16 1.14 1.17 1.22 1.29 1.24 1.29 1.42 1.50 1.37 1.45 1.49 1.48 1.51 1.54 1.43 1.31 1.24 1.25 1.19 1.22 1.26 1.29 1.37 1.42 1.43 1.40 1.41 1.44 1.45 1.47 1.48 1.53
0.77 0.75 0.74 0.74 0.75 0.74 0.75 0.79 0.83 0.88 0.96 1.10 1.03 1.09 1.09 1.20 1.21 1.26 1.39 1.37 1.43 1.44 1.59 1.49 1.49 1.55 1.45 1.30 1.24 1.25 1.20 1.22 1.25 1.31 1.36 1.37 1.35 1.35 1.42 1.44 1.46 1.47 1.46
0.71 0.70 0.70 0.69 0.70 0.69 0.69 0.71 0.74 0.74 0.76 0.87 0.88 0.93 0.83 0.92 1.15 1.19 1.19 1.17 1.20 1.40 1.61 1.57 1.53 1.51 1.48 1.39 1.27 1.25 1.24 1.21 1.25 1.26 1.26 1.29 1.33 1.31 1.35 1.41 1.45 1.49 1.47
0.66 0.67 0.65 0.66 0.67 0.67 0.66 0.69 0.70 0.69 0.64 0.72 0.82 0.82 0.69 0.64 0.82 1.00 1.01 1.15 1.16 1.26 1.57 1.50 1.49 1.50 1.53 1.44 1.37 1.26 1.29 1.23 1.20 1.21 1.19 1.22 1.23 1.23 1.25 1.36 1.38 1.47 1.44
0.63 0.64 0.63 0.63 0.61 0.62 0.63 0.65 0.68 0.69 0.67 0.59 0.66 0.72 0.82 0.86 0.67 0.66 0.96 1.18 1.34 1.37 1.43 1.48 1.45 1.50 1.60 1.53 1.43 1.37 1.24 1.24 1.20 1.20 1.19 1.17 1.18 1.16 1.18 1.20 1.23 1.35 1.41
0.62 0.64 0.64 0.61 0.59 0.58 0.60 0.62 0.63 0.63 0.64 0.60 0.59 0.63 0.67 0.66 0.67 0.69 0.61 0.84 1.08 1.23 1.27 1.27 1.29 1.29 1.43 1.52 1.49 1.41 1.28 1.24 1.23 1.22 1.23 1.17 1.17 1.13 1.11 1.13 1.14 1.19 1.25
0.58 0.61 0.62 0.61 0.61 0.59 0.56 0.54 0.57 0.59 0.60 0.59 0.58 0.57 0.56 0.56 0.47 0.53 0.63 0.66 0.77 0.95 1.18 1.28 1.23 1.33 1.46 1.55 1.52 1.43 1.36 1.31 1.29 1.27 1.24 1.19 1.23 1.13 1.07 1.07 1.09 1.12 1.16
0.47 0.49 0.51 0.52 0.54 0.59 0.62 0.61 0.58 0.58 0.57 0.57 0.56 0.54 0.56 0.52 0.56 0.53 0.52 0.54 0.59 0.74 0.99 1.21 1.31 1.35 1.32 1.40 1.43 1.38 1.37 1.40 1.35 1.31 1.21 1.18 1.27 1.19 1.10 1.08 1.07 1.10 1.13
0.46 0.50 0.50 0.49 0.49 0.49 0.49 0.58 0.61 0.60 0.59 0.58 0.55 0.55 0.55 0.54 0.54 0.51 0.51 0.50 0.44 0.52 0.71 0.86 1.27 1.40 1.36 1.33 1.31 1.35 1.36 1.37 1.33 1.37 1.24 1.18 1.22 1.24 1.16 1.11 1.11 1.08 1.11
0.49 0.49 0.50 0.49 0.50 0.51 0.49 0.48 0.51 0.58 0.60 0.61 0.60 0.59 0.59 0.60 0.60 0.58 0.56 0.53 0.48 0.37 0.38 0.59 0.99 1.26 1.31 1.32 1.29 1.32 1.25 1.29 1.29 1.33 1.29 1.19 1.21 1.28 1.22 1.19 1.18 1.17 1.15
0.49 0.48 0.47 0.47 0.47 0.49 0.48 0.46 0.47 0.50 0.56 0.59 0.60 0.59 0.60 0.61 0.62 0.61 0.59 0.54 0.51 0.48 0.40 0.53 0.63 1.09 1.20 1.24 1.23 1.13 1.10 1.27 1.35 1.33 1.34 1.20 1.23 1.24 1.18 1.19 1.21 1.21 1.20
0.49 0.48 0.48 0.47 0.47 0.48 0.48 0.47 0.47 0.47 0.47 0.49 0.51 0.52 0.53 0.55 0.53 0.53 0.57 0.55 0.50 0.52 0.43 0.49 0.61 0.77 1.02 1.05 1.22 1.29 1.10 1.15 1.29 1.36 1.30 1.23 1.27 1.21 1.17 1.15 1.19 1.20 1.21
0.51 0.50 0.49 0.48 0.47 0.47 0.47 0.46 0.46 0.47 0.46 0.45 0.45 0.45 0.46 0.47 0.50 0.53 0.54 0.54 0.53 0.54 0.51 0.45 0.53 0.60 0.81 0.90 1.03 1.31 1.50 1.20 1.28 1.38 1.29 1.25 1.24 1.18 1.19 1.17 1.21 1.19 1.20
0.48 0.48 0.48 0.46 0.46 0.47 0.46 0.45 0.45 0.44 0.43 0.43 0.45 0.46 0.47 0.48 0.50 0.52 0.55 0.54 0.56 0.57 0.56 0.52 0.48 0.58 0.66 0.89 0.89 1.00 1.07 1.33 1.35 1.31 1.29 1.27 1.25 1.21 1.21 1.18 1.24 1.22 1.19
0.35 0.37 0.40 0.42 0.44 0.45 0.45 0.46 0.46 0.44 0.43 0.43 0.45 0.46 0.47 0.49 0.51 0.51 0.53 0.55 0.56 0.56 0.55 0.52 0.54 0.55 0.63 0.72 0.86 0.89 0.93 1.08 1.08 1.25 1.23 1.16 1.20 1.23 1.22 1.23 1.22 1.25 1.28
0.28 0.27 0.30 0.31 0.33 0.36 0.40 0.44 0.47 0.46 0.44 0.44 0.45 0.47 0.49 0.54 0.57 0.57 0.55 0.54 0.54 0.55 0.55 0.53 0.57 0.60 0.63 0.68 0.70 0.88 0.94 0.97 1.09 1.15 1.12 1.12 1.10 1.17 1.17 1.18 1.24 1.23 1.24
0.27 0.25 0.25 0.26 0.25 0.26 0.28 0.32 0.40 0.46 0.46 0.47 0.47 0.50 0.52 0.55 0.58 0.62 0.62 0.59 0.58 0.55 0.54 0.55 0.58 0.57 0.58 0.69 0.70 0.78 0.94 0.96 0.84 1.12 1.13 1.03 1.12 1.06 1.15 1.21 1.22 1.20 1.21
0.23 0.23 0.22 0.23 0.23 0.23 0.23 0.26 0.28 0.33 0.43 0.47 0.50 0.51 0.53 0.56 0.59 0.62 0.63 0.63 0.61 0.60 0.59 0.58 0.55 0.55 0.57 0.58 0.61 0.62 0.78 0.91 0.95 1.04 1.00 0.94 1.08 1.01 1.06 1.10 1.17 1.20 1.23
0.23 0.23 0.22 0.22 0.23 0.24 0.22 0.22 0.24 0.26 0.26 0.31 0.39 0.50 0.51 0.53 0.55 0.57 0.59 0.60 0.58 0.59 0.61 0.61 0.60 0.58 0.58 0.62 0.62 0.67 0.70 0.75 0.88 0.91 0.89 0.81 0.91 0.93 0.97 0.99 1.02 1.07 1.11
0.21 0.21 0.21 0.20 0.21 0.20 0.22 0.20 0.21 0.20 0.20 0.22 0.25 0.27 0.34 0.46 0.53 0.55 0.55 0.53 0.54 0.55 0.60 0.61 0.63 0.64 0.63 0.66 0.69 0.69 0.61 0.61 0.64 0.71 0.77 0.77 0.83 0.91 0.97 0.90 0.92 0.96 1.01
0.22 0.22 0.21 0.20 0.20 0.20 0.21 0.20 0.19 0.20 0.18 0.17 0.19 0.21 0.23 0.25 0.29 0.36 0.49 0.51 0.50 0.51 0.53 0.56 0.60 0.62 0.63 0.64 0.66 0.66 0.65 0.62 0.61 0.60 0.67 0.68 0.75 0.81 0.85 0.90 0.91 0.90 0.91

GFSMA_prec_pwat_141.txt.gz
Precipitable_Water
1.06 1.08 1.13 1.18 1.25 1.33 1.48 1.57 1.69 1.76 1.80 1.84 1.91 1.75 1.65 1.59 1.58 1.59 1.39 1.46 1.51 1.52 1.55 1.49 1.31 1.18 1.19 1.21 1.21 1.24 1.32 1.35 1.37 1.40 1.43 1.47 1.50 1.51 1.54 1.56 1.57 1.56 1.51
0.99 0.97 0.99 1.07 1.13 1.15 1.20 1.24 1.26 1.36 1.52 1.69 1.72 1.61 1.47 1.60 1.66 1.73 1.70 1.57 1.56 1.58 1.56 1.47 1.36 1.24 1.17 1.18 1.20 1.21 1.25 1.32 1.35 1.37 1.40 1.46 1.47 1.50 1.51 1.55 1.62 1.60 1.57
0.93 0.93 0.97 1.01 0.97 1.04 1.03 1.14 1.24 1.26 1.30 1.37 1.40 1.25 1.34 1.38 1.47 1.56 1.95 1.73 1.67 1.68 1.62 1.54 1.44 1.37 1.26 1.20 1.19 1.19 1.20 1.24 1.29 1.32 1.34 1.39 1.43 1.46 1.50 1.53 1.53 1.59 1.58
0.86 0.89 0.92 0.92 0.98 1.00 1.02 1.00 1.02 1.10 1.15 1.22 1.20 1.12 1.24 1.43 1.24 1.30 1.61 1.67 1.68 1.66 1.62 1.57 1.55 1.51 1.46 1.42 1.36 1.28 1.17 1.18 1.21 1.25 1.30 1.35 1.41 1.44 1.46 1.50 1.53 1.54 1.59
0.77 0.80 0.81 0.84 0.87 0.89 0.91 0.97 1.03 1.03 1.08 1.12 1.17 1.04 1.02 1.19 1.23 1.37 1.39 1.46 1.53 1.63 1.65 1.64 1.59 1.61 1.60 1.56 1.52 1.42 1.28 1.21 1.21 1.21 1.23 1.29 1.38 1.43 1.45 1.45 1.50 1.51 1.53
0.69 0.70 0.70 0.72 0.73 0.72 0.73 0.77 0.81 0.86 0.87 0.88 0.89 0.91 1.02 1.14 1.24 1.34 1.39 1.43 1.50 1.57 1.61 1.58 1.55 1.51 1.56 1.62 1.61 1.56 1.40 1.34 1.32 1.25 1.26 1.26 1.28 1.34 1.40 1.42 1.44 1.48 1.48
0.64 0.66 0.68 0.66 0.64 0.63 0.65 0.67 0.68 0.68 0.69 0.76 0.75 0.71 0.74 0.91 0.95 0.99 1.04 1.13 1.30 1.36 1.34 1.35 1.38 1.34 1.39 1.61 1.59 1.59 1.53 1.44 1.38 1.34 1.27 1.29 1.30 1.26 1.30 1.33 1.38 1.43 1.46
0.55 0.56 0.58 0.60 0.62 0.61 0.59 0.57 0.58 0.57 0.63 0.71 0.66 0.67 0.54 0.60 0.70 0.76 0.83 0.86 0.90 1.02 1.09 1.21 1.25 1.27 1.38 1.55 1.55 1.52 1.55 1.51 1.44 1.41 1.37 1.28 1.29 1.30 1.26 1.28 1.32 1.36 1.42
0.44 0.43 0.43 0.44 0.48 0.53 0.56 0.59 0.59 0.56 0.51 0.58 0.67 0.67 0.57 0.52 0.60 0.65 0.73 0.81 0.90 0.98 0.99 1.01 1.12 1.23 1.30 1.42 1.47 1.52 1.54 1.53 1.53 1.46 1.49 1.41 1.34 1.30 1.29 1.26 1.29 1.33 1.34
0.43 0.42 0.42 0.42 0.41 0.42 0.41 0.46 0.53 0.56 0.57 0.53 0.57 0.68 0.70 0.67 0.57 0.49 0.62 0.64 0.69 0.69 0.79 0.87 0.90 0.99 1.14 1.22 1.32 1.43 1.51 1.52 1.54 1.56 1.58 1.54 1.47 1.38 1.35 1.29 1.27 1.30 1.29
0.41 0.40 0.40 0.40 0.41 0.42 0.42 0.42 0.42 0.44 0.48 0.50 0.53 0.56 0.57 0.62 0.66 0.59 0.47 0.54 0.62 0.66 0.66 0.70 0.76 0.86 0.94 1.09 1.23 1.31 1.40 1.46 1.54 1.63 1.58 1.63 1.58 1.48 1.43 1.35 1.28 1.26 1.26
0.40 0.40 0.40 0.40 0.40 0.40 0.41 0.42 0.43 0.43 0.43 0.45 0.45 0.47 0.50 0.51 0.51 0.53 0.51 0.50 0.49 0.55 0.62 0.63 0.68 0.74 0.85 0.98 1.11 1.24 1.36 1.43 1.52 1.56 1.56 1.61 1.63 1.60 1.49 1.43 1.37 1.27 1.22
0.39 0.39 0.41 0.41 0.41 0.41 0.41 0.42 0.42 0.43 0.43 0.43 0.45 0.45 0.48 0.49 0.51 0.52 0.50 0.46 0.42 0.46 0.51 0.57 0.59 0.67 0.73 0.79 0.94 1.07 1.20 1.34 1.38 1.39 1.39 1.48 1.57 1.59 1.54 1.47 1.42 1.33 1.25
0.40 0.42 0.42 0.43 0.43 0.42 0.41 0.41 0.42 0.43 0.45 0.44 0.44 0.48 0.48 0.49 0.49 0.48 0.46 0.49 0.46 0.45 0.46 0.45 0.58 0.59 0.56 0.63 0.62 0.78 1.00 1.20 1.32 1.37 1.36 1.47 1.60 1.55 1.54 1.50 1.47 1.46 1.40
0.43 0.44 0.44 0.44 0.44 0.43 0.43 0.43 0.43 0.44 0.45 0.46 0.44 0.44 0.44 0.46 0.49 0.49 0.48 0.48 0.47 0.44 0.43 0.47 0.51 0.69 0.69 0.64 0.58 0.63 0.81 0.98 1.12 1.30 1.35 1.43 1.50 1.56 1.54 1.50 1.50 1.50 1.50
0.44 0.46 0.45 0.46 0.45 0.46 0.45 0.45 0.47 0.46 0.43 0.43 0.43 0.42 0.42 0.44 0.45 0.48 0.49 0.48 0.49 0.50 0.44 0.55 0.58 0.63 0.67 0.63 0.65 0.63 0.72 0.82 0.93 1.16 1.27 1.32 1.42 1.50 1.47 1.46 1.47 1.50 1.49
0.39 0.40 0.38 0.39 0.40 0.42 0.43 0.45 0.44 0.44 0.43 0.41 0.41 0.41 0.41 0.42 0.42 0.44 0.46 0.47 0.46 0.48 0.46 0.54 0.61 0.66 0.67 0.65 0.64 0.66 0.68 0.69 0.84 0.99 1.22 1.31 1.36 1.38 1.41 1.48 1.50 1.44 1.43
0.30 0.33 0.27 0.27 0.25 0.28 0.31 0.36 0.40 0.42 0.41 0.41 0.40 0.39 0.38 0.40 0.42 0.44 0.45 0.46 0.47 0.50 0.48 0.47 0.57 0.60 0.63 0.66 0.67 0.65 0.59 0.63 0.68 0.85 1.08 1.21 1.29 1.39 1.38 1.39 1.47 1.49 1.42
0.24 0.32 0.26 0.23 0.23 0.25 0.26 0.29 0.32 0.33 0.36 0.39 0.40 0.40 0.38 0.39 0.39 0.42 0.43 0.42 0.43 0.45 0.49 0.49 0.50 0.59 0.63 0.69 0.65 0.64 0.61 0.61 0.64 0.76 0.98 1.12 1.27 1.26 1.33 1.36 1.33 1.40 1.42
0.22 0.25 0.22 0.21 0.22 0.23 0.24 0.23 0.23 0.22 0.25 0.30 0.36 0.41 0.41 0.40 0.40 0.41 0.42 0.41 0.42 0.42 0.45 0.47 0.48 0.52 0.58 0.62 0.60 0.54 0.52 0.62 0.56 0.67 0.79 0.93 1.08 1.12 1.12 1.21 1.31 1.30 1.34
0.21 0.21 0.20 0.20 0.20 0.21 0.27 0.25 0.21 0.19 0.19 0.20 0.24 0.32 0.42 0.44 0.44 0.44 0.43 0.43 0.43 0.43 0.43 0.44 0.46 0.47 0.46 0.47 0.47 0.52 0.50 0.57 0.64 0.65 0.71 0.88 0.95 1.02 1.06 1.16 1.29 1.33 1.38
0.20 0.19 0.19 0.19 0.18 0.20 0.24 0.23 0.23 0.19 0.19 0.19 0.20 0.20 0.25 0.37 0.45 0.47 0.47 0.47 0.46 0.44 0.43 0.44 0.44 0.43 0.43 0.45 0.48 0.49 0.52 0.53 0.54 0.72 0.71 0.73 0.89 0.90 1.04 1.12 1.16 1.34 1.36
0.19 0.18 0.17 0.18 0.21 0.24 0.21 0.21 0.22 0.20 0.18 0.18 0.20 0.19 0.19 0.22 0.29 0.42 0.49 0.50 0.49 0.49 0.49 0.48 0.46 0.46 0.45 0.48 0.50 0.49 0.51 0.54 0.54 0.58 0.63 0.64 0.78 0.82 0.92 0.99 1.09 1.13 1.22
0.20 0.19 0.18 0.18 0.20 0.20 0.20 0.19 0.19 0.20 0.17 0.16 0.19 0.20 0.19 0.18 0.20 0.21 0.29 0.42 0.48 0.49 0.51 0.52 0.51 0.51 0.52 0.53 0.54 0.53 0.52 0.55 0.56 0.53 0.59 0.57 0.66 0.71 0.83 0.90 0.96 1.02 1.05
0.22 0.21 0.20 0.17 0.16 0.19 0.20 0.19 0.18 0.18 0.19 0.16 0.17 0.20 0.19 0.18 0.18 0.18 0.17 0.18 0.23 0.39 0.50 0.52 0.53 0.54 0.57 0.57 0.56 0.56 0.53 0.50 0.46 0.47 0.51 0.51 0.58 0.62 0.69 0.76 0.84 0.87 0.93
0.23 0.24 0.21 0.18 0.18 0.17 0.20 0.19 0.18 0.19 0.19 0.17 0.17 0.18 0.19 0.18 0.17 0.16 0.15 0.15 0.15 0.18 0.21 0.25 0.37 0.45 0.50 0.52 0.55 0.56 0.56 0.50 0.46 0.41 0.48 0.49 0.50 0.52 0.51 0.64 0.67 0.77 0.79

GFSMA_prec_pwat_147.txt.gz
Precipitable_Water
1.12 1.13 1.12 1.11 1.11 1.14 1.04 1.03 1.05 1.11 1.10 1.12 1.18 1.29 1.40 1.45 1.37 1.35 1.32 1.19 1.08 1.24 1.41 1.31 1.40 1.59 1.70 1.62 1.49 1.39 1.36 1.33 1.35 1.40 1.46 1.48 1.47 1.46 1.49 1.44 1.43 1.39 1.37
1.02 1.08 1.05 1.01 0.99 0.96 0.93 0.88 0.88 0.92 1.03 1.09 1.10 1.15 1.14 1.15 1.16 1.12 1.14 1.21 1.16 1.25 1.41 1.45 1.38 1.49 1.59 1.58 1.52 1.42 1.35 1.35 1.34 1.38 1.43 1.44 1.46 1.44 1.46 1.45 1.42 1.45 1.45
0.74 0.76 0.78 0.79 0.81 0.85 0.86 0.88 0.89 0.91 0.94 1.03 1.04 1.12 1.12 1.08 0.98 0.98 1.07 1.14 1.22 1.25 1.42 1.44 1.47 1.50 1.57 1.65 1.59 1.48 1.39 1.36 1.36 1.37 1.41 1.42 1.43 1.43 1.44 1.46 1.44 1.45 1.48
0.66 0.64 0.62 0.63 0.68 0.70 0.72 0.76 0.79 0.82 0.85 0.89 0.91 0.97 1.05 1.05 0.97 0.98 1.02 1.16 1.22 1.28 1.34 1.39 1.55 1.56 1.52 1.67 1.68 1.59 1.50 1.40 1.40 1.40 1.41 1.45 1.42 1.43 1.42 1.45 1.45 1.44 1.47
0.58 0.58 0.57 0.58 0.60 0.58 0.57 0.59 0.61 0.64 0.65 0.70 0.72 0.79 0.89 0.97 0.99 0.95 0.97 1.06 1.17 1.28 1.36 1.38 1.40 1.52 1.60 1.69 1.77 1.68 1.62 1.53 1.46 1.44 1.40 1.42 1.45 1.42 1.40 1.39 1.43 1.46 1.46
0.40 0.39 0.39 0.40 0.44 0.45 0.49 0.52 0.50 0.51 0.56 0.58 0.59 0.62 0.67 0.75 0.89 0.88 0.89 0.99 1.08 1.17 1.30 1.41 1.39 1.43 1.55 1.68 1.80 1.69 1.60 1.65 1.56 1.49 1.48 1.48 1.43 1.44 1.38 1.37 1.38 1.44 1.47
0.39 0.37 0.37 0.37 0.38 0.36 0.36 0.37 0.38 0.42 0.47 0.47 0.46 0.48 0.55 0.62 0.65 0.71 0.89 0.97 1.01 1.11 1.25 1.37 1.40 1.48 1.63 1.66 1.67 1.71 1.64 1.68 1.62 1.57 1.42 1.41 1.46 1.44 1.42 1.35 1.34 1.39 1.45
0.38 0.37 0.37 0.36 0.36 0.35 0.34 0.33 0.32 0.31 0.35 0.43 0.40 0.43 0.41 0.50 0.61 0.64 0.72 0.79 0.95 1.08 1.25 1.40 1.45 1.50 1.54 1.56 1.62 1.66 1.65 1.59 1.71 1.61 1.50 1.42 1.40 1.49 1.45 1.38 1.35 1.36 1.38
0.41 0.40 0.39 0.38 0.38 0.38 0.36 0.37 0.36 0.34 0.29 0.34 0.39 0.41 0.37 0.37 0.46 0.58 0.66 0.73 0.73 0.79 0.85 0.94 1.04 1.10 1.22 1.35 1.44 1.43 1.40 1.38 1.52 1.47 1.44 1.47 1.49 1.60 1.57 1.48 1.42 1.40 1.42
0.42 0.42 0.42 0.41 0.40 0.40 0.38 0.38 0.38 0.38 0.36 0.31 0.35 0.40 0.42 0.44 0.40 0.37 0.52 0.60 0.67 0.68 0.70 0.75 0.76 0.80 0.87 0.95 1.03 1.13 1.18 1.21 1.26 1.34 1.40 1.48 1.58 1.62 1.63 1.61 1.55 1.45 1.42
0.45 0.44 0.42 0.41 0.40 0.40 0.39 0.39 0.39 0.39 0.40 0.38 0.36 0.35 0.35 0.37 0.42 0.40 0.35 0.45 0.52 0.57 0.61 0.63 0.68 0.73 0.78 0.79 0.83 0.94 0.96 1.00 1.06 1.19 1.30 1.42 1.52 1.59 1.59 1.61 1.59 1.57 1.48
0.43 0.43 0.42 0.41 0.42 0.41 0.42 0.42 0.41 0.40 0.39 0.39 0.40 0.39 0.37 0.33 0.32 0.33 0.32 0.35 0.40 0.50 0.55 0.57 0.58 0.61 0.64 0.68 0.71 0.76 0.81 0.83 0.83 0.88 0.97 1.11 1.31 1.41 1.52 1.58 1.62 1.60 1.58
0.39 0.39 0.40 0.40 0.40 0.41 0.43 0.42 0.39 0.39 0.38 0.38 0.38 0.38 0.39 0.39 0.39 0.36 0.32 0.30 0.29 0.38 0.44 0.53 0.58 0.59 0.60 0.64 0.62 0.64 0.65 0.71 0.74 0.76 0.83 0.89 1.02 1.25 1.34 1.43 1.50 1.58 1.60
0.38 0.38 0.37 0.37 0.38 0.38 0.38 0.39 0.38 0.38 0.39 0.39 0.38 0.38 0.38 0.38 0.39 0.39 0.37 0.34 0.28 0.28 0.32 0.37 0.49 0.55 0.58 0.61 0.61 0.63 0.61 0.62 0.70 0.72 0.76 0.83 0.87 0.98 1.21 1.33 1.42 1.53 1.63
0.35 0.32 0.30 0.30 0.32 0.31 0.30 0.30 0.32 0.35 0.36 0.38 0.38 0.40 0.39 0.39 0.39 0.39 0.39 0.39 0.35 0.28 0.29 0.36 0.36 0.47 0.48 0.55 0.58 0.58 0.58 0.57 0.57 0.62 0.68 0.72 0.80 0.86 0.92 1.14 1.31 1.45 1.48
0.30 0.25 0.22 0.24 0.27 0.27 0.26 0.25 0.23 0.27 0.30 0.32 0.35 0.37 0.39 0.41 0.41 0.41 0.40 0.42 0.41 0.36 0.30 0.37 0.37 0.41 0.46 0.48 0.49 0.52 0.54 0.56 0.60 0.62 0.62 0.69 0.72 0.76 0.81 0.90 1.16 1.32 1.41
0.25 0.22 0.22 0.21 0.23 0.26 0.23 0.21 0.21 0.22 0.25 0.26 0.28 0.31 0.34 0.39 0.40 0.40 0.41 0.41 0.39 0.37 0.32 0.35 0.38 0.42 0.42 0.44 0.48 0.55 0.54 0.56 0.65 0.67 0.67 0.63 0.66 0.68 0.69 0.74 0.85 1.10 1.30
0.24 0.22 0.22 0.22 0.22 0.22 0.20 0.19 0.19 0.19 0.20 0.21 0.22 0.24 0.25 0.29 0.35 0.41 0.42 0.39 0.38 0.38 0.35 0.32 0.38 0.41 0.45 0.48 0.50 0.52 0.55 0.55 0.58 0.67 0.67 0.64 0.66 0.69 0.73 0.75 0.82 0.90 1.03
0.22 0.22 0.21 0.22 0.19 0.20 0.19 0.20 0.20 0.18 0.19 0.21 0.22 0.22 0.23 0.23 0.23 0.28 0.37 0.40 0.39 0.39 0.38 0.36 0.35 0.41 0.43 0.45 0.47 0.51 0.52 0.53 0.56 0.63 0.70 0.70 0.67 0.67 0.71 0.75 0.83 0.91 0.91
0.22 0.22 0.21 0.22 0.22 0.18 0.18 0.19 0.19 0.18 0.19 0.21 0.21 0.21 0.21 0.21 0.21 0.23 0.25 0.31 0.38 0.39 0.39 0.38 0.37 0.37 0.39 0.42 0.43 0.42 0.46 0.50 0.52 0.60 0.69 0.72 0.71 0.71 0.69 0.78 0.79 0.86 0.89
0.23 0.23 0.22 0.21 0.22 0.20 0.18 0.17 0.18 0.18 0.18 0.19 0.19 0.20 0.19 0.20 0.21 0.22 0.23 0.23 0.26 0.35 0.38 0.38 0.38 0.39 0.39 0.39 0.39 0.41 0.44 0.49 0.53 0.58 0.64 0.69 0.72 0.73 0.71 0.73 0.77 0.80 0.83
0.23 0.23 0.22 0.21 0.20 0.20 0.19 0.18 0.18 0.18 0.18 0.19 0.17 0.19 0.18 0.18 0.16 0.18 0.21 0.23 0.24 0.25 0.31 0.37 0.40 0.41 0.41 0.41 0.42 0.41 0.42 0.44 0.44 0.56 0.59 0.63 0.69 0.67 0.71 0.69 0.68 0.74 0.76
0.23 0.22 0.22 0.22 0.21 0.20 0.21 0.19 0.18 0.18 0.18 0.19 0.17 0.17 0.17 0.17 0.16 0.14 0.16 0.18 0.20 0.23 0.24 0.28 0.34 0.40 0.43 0.44 0.44 0.43 0.44 0.44 0.43 0.49 0.56 0.56 0.63 0.64 0.67 0.66 0.69 0.70 0.69
0.22 0.21 0.22 0.23 0.23 0.23 0.21 0.20 0.19 0.18 0.18 0.18 0.18 0.18 0.18 0.17 0.17 0.15 0.13 0.13 0.14 0.16 0.18 0.20 0.22 0.27 0.35 0.42 0.46 0.46 0.46 0.47 0.48 0.49 0.52 0.48 0.57 0.57 0.64 0.66 0.68 0.63 0.65
0.23 0.23 0.22 0.21 0.21 0.23 0.23 0.21 0.20 0.19 0.17 0.17 0.17 0.19 0.19 0.18 0.17 0.16 0.13 0.12 0.11 0.12 0.15 0.17 0.18 0.20 0.22 0.24 0.28 0.37 0.45 0.45 0.44 0.45 0.47 0.46 0.49 0.50 0.54 0.55 0.57 0.61 0.59
0.23 0.21 0.20 0.20 0.20 0.20 0.23 0.23 0.21 0.20 0.17 0.16 0.16 0.16 0.18 0.19 0.17 0.16 0.13 0.11 0.09 0.10 0.10 0.11 0.11 0.12 0.15 0.17 0.17 0.19 0.21 0.25 0.39 0.42 0.45 0.44 0.46 0.47 0.44 0.50 0.50 0.52 0.57

GFSMA_prec_pwat_150.txt.gz
Precipitable_Water
0.96 0.97 1.05 1.07 1.10 1.11 1.09 1.05 0.99 0.94 0.98 1.05 1.07 1.06 1.08 1.15 1.20 1.22 1.18 1.14 1.18 1.35 1.33 1.38 1.40 1.35 1.38 1.50 1.57 1.65 1.51 1.42 1.40 1.38 1.42 1.49 1.50 1.47 1.46 1.47 1.45 1.46 1.46
0.74 0.73 0.76 0.82 0.84 0.88 0.88 0.87 0.84 0.84 0.85 0.92 0.99 1.05 1.05 1.10 1.15 1.15 1.13 1.12 1.20 1.26 1.24 1.26 1.37 1.46 1.45 1.49 1.60 1.64 1.57 1.43 1.41 1.38 1.39 1.47 1.50 1.50 1.46 1.47 1.47 1.45 1.43
0.59 0.58 0.57 0.59 0.63 0.67 0.70 0.74 0.78 0.82 0.83 0.88 0.92 0.97 1.04 1.10 1.10 1.08 1.08 1.02 1.05 1.17 1.26 1.26 1.22 1.45 1.44 1.51 1.64 1.60 1.61 1.48 1.46 1.40 1.39 1.41 1.49 1.47 1.49 1.46 1.47 1.44 1.36
0.55 0.53 0.52 0.52 0.55 0.54 0.53 0.53 0.55 0.58 0.65 0.73 0.77 0.84 0.89 0.95 1.01 1.04 1.01 0.95 0.96 1.01 1.17 1.26 1.23 1.29 1.43 1.57 1.65 1.59 1.59 1.59 1.48 1.46 1.40 1.41 1.43 1.48 1.46 1.47 1.47 1.49 1.46
0.40 0.39 0.38 0.38 0.40 0.38 0.38 0.40 0.42 0.44 0.44 0.49 0.54 0.59 0.66 0.76 0.87 0.94 0.95 0.97 0.95 0.99 1.13 1.22 1.24 1.28 1.43 1.51 1.64 1.75 1.59 1.62 1.56 1.49 1.44 1.40 1.41 1.45 1.47 1.47 1.45 1.49 1.50
0.37 0.37 0.36 0.36 0.37 0.34 0.34 0.34 0.32 0.34 0.38 0.38 0.39 0.41 0.48 0.55 0.63 0.72 0.80 0.93 0.95 1.00 1.11 1.19 1.25 1.30 1.40 1.46 1.59 1.73 1.65 1.62 1.64 1.59 1.51 1.47 1.48 1.44 1.47 1.51 1.48 1.46 1.47
0.38 0.37 0.37 0.36 0.37 0.35 0.35 0.35 0.33 0.31 0.30 0.32 0.29 0.31 0.37 0.46 0.54 0.62 0.72 0.79 0.87 1.06 1.13 1.16 1.22 1.33 1.40 1.45 1.47 1.51 1.62 1.53 1.61 1.69 1.67 1.59 1.54 1.50 1.47 1.46 1.46 1.45 1.44
0.41 0.40 0.39 0.38 0.38 0.37 0.36 0.36 0.35 0.33 0.33 0.34 0.28 0.29 0.24 0.30 0.47 0.55 0.67 0.70 0.73 0.78 0.86 0.93 1.00 1.13 1.26 1.37 1.48 1.57 1.65 1.63 1.64 1.66 1.67 1.72 1.59 1.55 1.50 1.44 1.45 1.45 1.43
0.44 0.43 0.41 0.40 0.39 0.39 0.37 0.37 0.37 0.35 0.31 0.35 0.38 0.31 0.24 0.23 0.29 0.45 0.56 0.64 0.66 0.68 0.69 0.77 0.82 0.91 1.12 1.21 1.26 1.38 1.57 1.53 1.65 1.66 1.59 1.61 1.65 1.58 1.47 1.44 1.42 1.41 1.43
0.46 0.44 0.41 0.40 0.39 0.40 0.39 0.39 0.40 0.38 0.37 0.33 0.37 0.39 0.38 0.36 0.27 0.23 0.39 0.51 0.57 0.61 0.64 0.66 0.69 0.73 0.82 0.99 1.09 1.21 1.15 1.18 1.23 1.34 1.40 1.42 1.53 1.61 1.58 1.50 1.46 1.36 1.49
0.47 0.44 0.41 0.40 0.38 0.39 0.39 0.39 0.39 0.39 0.39 0.37 0.36 0.37 0.38 0.37 0.38 0.31 0.23 0.31 0.44 0.51 0.56 0.59 0.64 0.67 0.69 0.71 0.78 0.84 0.89 0.95 1.01 1.08 1.13 1.20 1.26 1.36 1.47 1.51 1.49 1.39 1.52
0.44 0.42 0.40 0.40 0.40 0.39 0.38 0.37 0.37 0.38 0.39 0.38 0.37 0.36 0.36 0.35 0.35 0.34 0.29 0.27 0.27 0.35 0.45 0.51 0.54 0.58 0.63 0.67 0.69 0.71 0.76 0.79 0.86 0.92 0.95 0.97 1.06 1.16 1.25 1.38 1.50 1.43 1.49
0.41 0.39 0.38 0.37 0.37 0.36 0.34 0.33 0.33 0.34 0.36 0.35 0.36 0.36 0.36 0.36 0.36 0.36 0.34 0.32 0.29 0.29 0.32 0.39 0.46 0.49 0.56 0.57 0.59 0.62 0.65 0.67 0.70 0.74 0.78 0.84 0.88 0.91 0.97 1.07 1.22 1.41 1.54
0.39 0.37 0.35 0.34 0.32 0.31 0.28 0.27 0.27 0.28 0.32 0.33 0.33 0.35 0.35 0.37 0.38 0.37 0.35 0.32 0.28 0.30 0.31 0.31 0.39 0.42 0.46 0.49 0.52 0.55 0.56 0.58 0.59 0.61 0.64 0.69 0.73 0.77 0.84 0.90 0.98 1.13 1.30
0.38 0.33 0.31 0.28 0.27 0.27 0.27 0.24 0.23 0.23 0.25 0.27 0.30 0.31 0.32 0.35 0.37 0.40 0.40 0.39 0.34 0.27 0.27 0.33 0.31 0.36 0.37 0.40 0.42 0.45 0.48 0.54 0.58 0.60 0.61 0.65 0.70 0.73 0.75 0.83 0.89 0.95 1.09
0.36 0.31 0.28 0.26 0.25 0.24 0.23 0.24 0.22 0.22 0.22 0.23 0.25 0.26 0.27 0.30 0.33 0.36 0.39 0.40 0.38 0.34 0.28 0.34 0.34 0.36 0.39 0.41 0.43 0.44 0.46 0.51 0.56 0.61 0.66 0.65 0.64 0.65 0.68 0.74 0.82 0.87 0.91
0.33 0.30 0.26 0.24 0.22 0.20 0.20 0.21 0.21 0.21 0.21 0.22 0.23 0.23 0.24 0.26 0.27 0.30 0.32 0.35 0.36 0.37 0.33 0.34 0.36 0.39 0.38 0.39 0.41 0.44 0.49 0.54 0.61 0.59 0.60 0.62 0.62 0.63 0.63 0.66 0.71 0.77 0.82
0.33 0.29 0.25 0.22 0.21 0.20 0.19 0.19 0.19 0.19 0.19 0.19 0.20 0.23 0.23 0.25 0.24 0.25 0.25 0.26 0.28 0.33 0.36 0.34 0.36 0.37 0.37 0.38 0.40 0.44 0.47 0.51 0.56 0.58 0.59 0.61 0.59 0.60 0.59 0.60 0.62 0.70 0.72
0.28 0.25 0.24 0.21 0.19 0.19 0.19 0.19 0.18 0.19 0.19 0.20 0.20 0.22 0.21 0.22 0.22 0.22 0.21 0.21 0.23 0.26 0.32 0.37 0.37 0.39 0.39 0.39 0.40 0.43 0.46 0.49 0.53 0.57 0.60 0.61 0.60 0.57 0.58 0.60 0.60 0.61 0.70
0.24 0.24 0.25 0.24 0.22 0.19 0.19 0.19 0.18 0.17 0.18 0.19 0.19 0.21 0.22 0.20 0.21 0.20 0.19 0.19 0.20 0.21 0.23 0.28 0.36 0.38 0.39 0.41 0.42 0.40 0.41 0.46 0.49 0.54 0.57 0.58 0.58 0.57 0.57 0.59 0.62 0.61 0.65
0.25 0.26 0.25 0.24 0.23 0.21 0.20 0.19 0.18 0.17 0.17 0.18 0.19 0.20 0.21 0.19 0.20 0.20 0.18 0.18 0.18 0.18 0.18 0.19 0.23 0.33 0.36 0.40 0.39 0.42 0.42 0.45 0.48 0.50 0.51 0.54 0.54 0.55 0.56 0.59 0.63 0.62 0.66
0.26 0.25 0.24 0.24 0.24 0.23 0.22 0.20 0.19 0.19 0.18 0.17 0.17 0.18 0.20 0.19 0.17 0.17 0.18 0.18 0.19 0.17 0.16 0.17 0.17 0.19 0.28 0.35 0.41 0.43 0.43 0.42 0.40 0.49 0.47 0.49 0.53 0.51 0.55 0.58 0.62 0.66 0.64
0.26 0.25 0.24 0.24 0.23 0.23 0.23 0.22 0.20 0.19 0.19 0.18 0.18 0.17 0.19 0.18 0.17 0.15 0.15 0.16 0.15 0.17 0.17 0.16 0.16 0.17 0.19 0.24 0.34 0.43 0.44 0.43 0.41 0.44 0.46 0.45 0.49 0.49 0.54 0.58 0.61 0.64 0.66
0.25 0.24 0.24 0.24 0.24 0.25 0.24 0.23 0.20 0.19 0.19 0.19 0.19 0.18 0.17 0.17 0.17 0.15 0.14 0.13 0.13 0.13 0.15 0.15 0.16 0.16 0.20 0.21 0.19 0.26 0.40 0.47 0.47 0.45 0.45 0.41 0.47 0.47 0.54 0.57 0.61 0.63 0.64
0.24 0.23 0.24 0.23 0.23 0.23 0.24 0.21 0.20 0.19 0.18 0.18 0.19 0.20 0.18 0.16 0.17 0.15 0.14 0.12 0.11 0.11 0.12 0.12 0.13 0.14 0.14 0.18 0.17 0.15 0.15 0.23 0.41 0.42 0.44 0.43 0.44 0.45 0.50 0.52 0.55 0.59 0.61
0.23 0.23 0.20 0.20 0.22 0.22 0.23 0.21 0.20 0.20 0.18 0.19 0.19 0.17 0.18 0.16 0.15 0.15 0.14 0.12 0.10 0.09 0.08 0.08 0.08 0.09 0.10 0.10 0.12 0.12 0.13 0.13 0.14 0.17 0.31 0.39 0.43 0.44 0.43 0.49 0.48 0.50 0.52